Temp
82 92 98 95 80 82 79 84 96 92 94 99 98 96 94 99 94 85 109 112 110 107 93 87 79 80 80 80 79 78 78 78 79 79 78 78 78 78 78 78 78 79 80 80 80 80 80 80 79
96 97 96 90 76 75 80 91 90 93 98 99 98 96 92 92 102 98 103 108 108 104 93 92 79 79 80 79 79 78 78 78 78 78 78 78 78 78 78 78 78 79 80 80 80 80 79 79 79
92 98 87 83 79 75 82 93 93 98 98 96 95 100 98 97 104 105 107 106 107 101 95 93 79 79 79 79 79 78 78 78 78 78 78 78 78 78 78 78 78 79 80 80 80 79 79 79 78
92 92 89 78 76 84 88 93 96 95 96 99 98 91 100 104 103 107 104 105 102 100 98 87 79 79 79 79 79 78 78 78 78 78 78 78 78 78 77 78 78 79 80 80 79 79 78 78 78
94 90 78 77 76 85 93 96 93 92 94 96 98 92 95 103 107 104 104 107 105 104 101 92 78 79 79 79 78 78 78 78 78 78 78 78 77 77 77 78 78 79 79 79 79 79 78 78 78
82 83 70 73 79 87 92 96 94 93 95 97 96 95 97 106 104 108 109 109 110 106 103 96 80 78 78 79 78 78 77 77 77 78 78 78 77 77 77 77 78 78 79 79 79 78 78 77 77
79 80 75 78 79 83 89 97 93 94 94 95 101 91 99 100 106 108 110 112 112 110 105 100 90 83 78 78 78 77 77 77 77 77 77 77 77 77 77 77 77 77 78 78 78 78 77 77 77
84 81 75 80 77 79 92 94 96 92 93 105 103 92 93 103 108 111 112 112 112 111 108 106 94 90 88 87 78 77 77 77 76 76 76 77 77 77 76 76 76 77 77 77 77 77 77 77 77
90 74 71 76 78 80 92 89 97 101 97 99 100 99 100 107 109 109 108 110 110 109 107 106 101 94 91 94 88 78 77 77 76 77 76 76 84 83 83 80 78 76 76 76 76 77 76 76 76
79 74 75 85 87 85 89 89 91 93 92 93 96 99 101 105 105 104 104 104 105 106 106 106 99 98 96 98 94 86 86 84 83 84 83 82 84 86 87 83 78 76 76 76 76 76 76 76 86
80 73 81 86 89 90 86 87 93 91 88 93 92 96 99 101 102 103 104 106 106 107 108 107 98 95 97 97 98 93 90 88 86 84 84 83 85 86 88 88 84 82 78 82 80 80 81 83 83
76 81 82 84 87 88 83 86 85 90 92 99 101 99 99 98 99 101 102 105 106 106 106 106 103 93 92 98 97 97 95 92 90 88 85 84 85 85 86 88 87 83 85 83 85 85 83 83 86
77 80 83 85 85 86 87 80 82 86 94 100 101 99 96 96 97 99 101 101 102 101 102 103 102 95 90 88 95 94 95 95 93 92 88 87 87 84 86 87 89 87 87 85 86 88 86 86 86
81 81 81 84 84 85 81 81 82 86 92 94 95 96 97 98 98 98 98 96 98 100 101 103 102 95 91 88 87 91 91 95 95 95 93 86 87 85 88 85 87 89 89 90 87 87 86 87 86
78 72 77 80 82 81 83 74 74 85 90 90 92 95 95 96 97 97 99 97 99 99 99 98 99 97 89 88 89 90 94 94 95 95 92 89 85 85 84 87 86 88 88 86 87 86 87 84 85
69 71 65 76 79 80 78 68 79 86 85 86 89 92 94 95 97 98 98 97 98 98 97 98 100 98 90 89 90 92 95 95 96 95 95 90 86 85 85 87 86 88 87 88 86 85 84 83 83
66 59 65 70 80 79 76 70 80 85 84 84 87 90 92 93 96 97 99 99 98 97 95 94 94 95 94 91 92 91 90 93 96 96 95 91 88 85 84 86 87 85 87 87 85 84 81 80 82
60 63 66 65 75 79 74 73 79 83 83 81 84 88 91 92 94 98 99 99 97 95 93 92 93 93 93 93 91 92 94 94 94 94 94 91 88 85 82 86 84 85 86 85 85 80 81 81 83
65 63 62 69 78 75 72 74 77 82 81 80 83 87 89 90 96 98 99 98 97 94 91 90 89 88 90 91 90 91 92 92 92 92 91 90 87 83 80 84 84 84 83 82 81 80 78 81 81
62 59 60 66 72 72 69 69 76 80 81 81 81 84 87 89 92 94 95 95 93 92 90 89 88 87 88 91 88 92 94 95 93 92 89 87 86 84 83 81 84 81 82 80 79 78 80 79 78
60 57 57 58 66 69 67 63 68 78 81 83 83 84 87 87 88 90 92 92 93 92 90 88 88 87 88 87 89 89 90 90 90 89 86 85 84 83 79 79 83 81 81 81 79 78 77 74 77
54 63 62 59 57 51 66 52 64 71 74 78 81 83 83 85 88 88 88 89 90 92 93 91 89 88 88 87 86 85 85 85 88 87 86 81 81 79 78 77 80 77 82 80 79 81 76 76 76
57 64 61 60 57 56 57 54 61 71 70 74 78 82 84 85 85 86 89 91 93 94 92 91 90 88 87 85 85 88 84 88 88 87 79 75 75 76 77 77 78 79 82 82 79 77 77 78 78
65 60 60 59 56 46 54 55 57 64 69 75 81 84 85 87 88 89 90 92 92 94 94 92 88 86 86 86 84 84 83 86 85 82 73 72 73 75 77 78 80 80 80 79 78 79 78 77 78
60 53 43 41 42 42 56 52 56 68 74 77 79 83 86 88 89 89 90 90 90 91 92 91 89 85 86 85 85 84 85 85 82 75 74 74 74 76 76 78 80 80 80 81 81 78 77 76 77
53 53 44 33 36 42 55 46 56 71 77 81 81 82 84 86 88 88 89 90 92 91 90 89 88 85 85 84 84 84 85 87 85 81 83 81 79 79 80 80 81 81 81 81 79 78 79 78 76
53 48 55 44 46 39 45 51 63 71 74 77 78 81 82 84 86 87 89 90 91 92 90 89 87 86 85 85 84 83 83 85 85 83 82 79 80 82 80 81 81 82 81 80 77 79 77 77 73
56 57 38 46 35 33 45 49 52 63 67 75 77 78 79 82 83 85 87 89 90 91 87 86 87 85 85 85 84 82 83 84 82 81 81 81 80 83 81 81 81 80 80 80 78 78 76 73 71
50 45 52 44 43 38 38 44 64 66 71 72 77 77 79 81 79 81 85 87 85 86 87 84 85 84 80 80 80 77 79 80 80 82 82 81 81 81 82 81 81 81 80 79 77 76 76 74 71
58 50 49 38 34 44 45 46 64 63 78 76 75 76 81 82 76 74 74 76 84 87 87 85 84 83 83 78 78 77 78 82 81 81 81 82 81 83 83 82 81 81 81 78 76 76 77 72 69
MSLP
1010.71 1010.08 1008.59 1007.23 1005.86 1002.94 999.97 998.24 996.63 996.17 996.30 996.99 997.45 997.53 997.37 996.72 996.86 998.29 999.15 999.42 1000.58 1002.16 1004.59 1005.90 1006.86 1007.34 1007.77 1008.30 1008.67 1008.96 1009.29 1009.74 1010.04 1010.34 1010.58 1010.92 1011.34 1011.77 1012.11 1012.28 1012.52 1012.74 1012.92 1013.13 1013.19 1013.33 1013.43 1013.58 1013.73
1009.26 1008.65 1007.94 1005.90 1003.81 1000.62 998.31 997.25 996.24 996.57 996.78 997.57 998.02 998.04 998.08 997.24 997.48 999.08 999.70 1000.45 1001.22 1002.68 1004.52 1005.38 1006.60 1007.22 1007.70 1008.12 1008.67 1009.08 1009.37 1009.78 1010.18 1010.45 1010.69 1011.01 1011.40 1011.80 1012.16 1012.31 1012.54 1012.72 1012.95 1013.18 1013.33 1013.45 1013.48 1013.67 1013.78
1009.25 1008.32 1006.84 1004.53 1002.32 999.79 997.06 995.86 996.37 996.52 997.08 997.93 997.60 997.89 997.55 997.20 997.76 998.55 999.80 1000.90 1001.58 1002.92 1004.24 1005.07 1006.47 1007.01 1007.60 1007.93 1008.56 1009.04 1009.47 1009.79 1010.18 1010.47 1010.84 1011.18 1011.52 1011.88 1012.29 1012.52 1012.70 1012.86 1013.06 1013.20 1013.40 1013.49 1013.58 1013.72 1013.81
1008.40 1007.67 1006.56 1003.52 1000.80 999.38 997.51 996.34 996.36 996.57 997.73 997.82 997.65 997.91 998.04 998.33 998.30 998.93 1000.54 1001.06 1001.96 1002.95 1003.96 1005.04 1006.58 1007.20 1007.69 1008.12 1008.65 1009.11 1009.69 1009.84 1010.30 1010.49 1010.92 1011.32 1011.66 1012.01 1012.39 1012.59 1012.78 1012.94 1013.18 1013.32 1013.47 1013.62 1013.57 1013.74 1013.77
1007.88 1006.29 1004.49 1002.27 1001.01 999.32 997.82 997.21 997.77 997.56 997.35 997.27 997.67 997.48 997.83 998.56 998.90 999.55 1000.31 1001.00 1001.76 1002.58 1003.56 1004.97 1006.31 1007.33 1007.84 1008.21 1008.67 1009.11 1009.45 1009.81 1010.17 1010.59 1010.93 1011.36 1011.67 1011.87 1012.31 1012.61 1012.73 1013.00 1013.26 1013.41 1013.61 1013.74 1013.74 1013.84 1013.86
1007.15 1005.99 1003.98 1001.57 1000.12 999.14 998.46 997.78 998.25 998.28 997.86 997.60 997.25 997.46 997.39 997.97 998.93 999.27 999.96 1000.46 1001.10 1002.04 1003.16 1004.53 1006.22 1007.02 1007.66 1008.09 1008.42 1008.87 1009.35 1009.82 1010.07 1010.48 1010.90 1011.14 1011.53 1011.77 1012.30 1012.57 1012.79 1012.98 1013.08 1013.25 1013.44 1013.60 1013.70 1013.86 1013.91
1006.15 1004.40 1002.80 1001.21 999.92 998.94 998.63 998.48 998.09 997.72 997.46 996.98 997.18 997.42 997.42 998.19 998.55 998.91 999.34 999.90 1000.48 1001.44 1002.74 1004.04 1005.75 1006.61 1007.52 1007.93 1008.25 1008.56 1008.99 1009.58 1010.06 1010.48 1010.80 1011.14 1011.53 1011.72 1012.14 1012.50 1012.75 1012.89 1012.90 1013.13 1013.41 1013.55 1013.72 1013.78 1013.90
1005.66 1004.67 1002.63 1000.87 999.85 998.86 998.53 998.64 998.48 997.91 997.38 996.87 996.83 996.58 996.74 997.27 998.08 998.53 998.82 999.25 999.91 1000.83 1002.05 1003.06 1004.86 1005.96 1006.74 1007.39 1008.23 1008.58 1008.93 1009.21 1009.76 1010.23 1010.71 1010.91 1011.23 1011.52 1012.04 1012.34 1012.50 1012.67 1012.83 1013.07 1013.32 1013.45 1013.57 1013.68 1013.76
1005.40 1004.12 1001.81 1000.79 1000.00 999.35 998.89 998.62 998.40 997.96 997.48 997.04 997.44 997.29 997.35 996.68 998.04 998.16 998.53 998.97 999.68 1000.42 1001.61 1002.64 1003.72 1005.15 1005.90 1006.20 1007.28 1008.54 1008.90 1009.20 1009.52 1009.85 1010.25 1010.66 1010.64 1010.92 1011.32 1011.65 1011.71 1012.28 1012.56 1012.84 1013.06 1013.18 1013.34 1013.41 1013.40
1004.68 1002.62 1001.13 1000.60 999.86 999.24 999.13 999.20 998.71 998.08 997.62 997.55 997.52 997.91 998.41 997.96 998.15 998.19 998.37 998.89 999.52 1000.13 1001.06 1002.29 1003.36 1004.06 1004.93 1005.15 1005.72 1007.26 1007.84 1008.39 1008.81 1009.10 1009.40 1010.05 1009.87 1009.99 1010.32 1010.65 1011.36 1011.83 1012.18 1012.46 1012.68 1012.61 1012.76 1012.90 1012.18
1003.80 1001.48 1001.32 1000.14 1000.04 999.63 999.45 999.64 999.16 997.95 997.32 997.43 997.50 998.19 998.36 998.13 998.11 998.25 998.48 998.69 999.03 999.61 1000.17 1001.01 1002.81 1003.86 1004.11 1004.52 1004.87 1005.79 1006.59 1007.21 1007.75 1008.35 1008.69 1009.07 1009.18 1009.44 1009.71 1009.87 1010.66 1011.19 1011.67 1011.72 1012.06 1012.28 1012.35 1012.10 1011.79
1002.78 1001.85 1001.53 1000.89 1000.35 999.96 999.95 1000.45 999.66 998.58 997.83 997.44 997.04 997.68 998.47 998.60 998.51 998.64 998.48 998.64 998.80 999.41 1000.03 1000.91 1001.71 1003.56 1004.06 1003.95 1004.41 1004.70 1005.13 1005.91 1006.55 1007.08 1007.73 1008.16 1008.78 1008.82 1008.80 1009.11 1009.30 1010.10 1010.24 1010.71 1010.54 1010.82 1011.06 1011.38 1010.97
1001.88 1001.44 1001.19 1000.98 1000.72 1000.47 1000.26 1000.29 1000.19 999.46 998.43 997.89 997.29 997.47 998.36 999.12 999.28 999.35 999.38 999.58 999.83 1000.08 1000.57 1001.01 1001.70 1002.95 1003.78 1004.27 1003.81 1004.11 1004.34 1004.75 1005.09 1005.61 1006.36 1007.03 1007.46 1007.80 1008.22 1008.39 1008.46 1008.79 1009.37 1009.83 1009.75 1009.64 1009.88 1010.23 1010.32
1002.18 1001.44 1000.95 1000.60 1000.31 1000.31 1000.04 999.70 1000.43 998.84 999.22 998.25 998.00 997.67 998.03 998.47 999.06 999.28 999.68 1000.26 1000.27 1000.53 1000.54 1000.72 1001.26 1002.19 1003.23 1003.54 1003.80 1003.76 1004.10 1004.08 1004.27 1004.44 1004.87 1005.98 1006.66 1006.90 1007.16 1007.86 1008.22 1008.10 1008.39 1008.41 1008.90 1009.01 1009.36 1009.55 1009.94
1003.00 1001.91 1001.04 999.97 999.85 999.64 1000.13 999.47 999.33 999.14 999.03 998.31 998.04 997.73 998.01 998.34 998.66 998.62 998.89 999.43 999.89 1000.21 1000.34 1000.72 1001.10 1001.78 1002.60 1002.97 1003.25 1003.56 1003.42 1003.69 1003.70 1003.70 1004.08 1004.75 1005.87 1006.34 1006.69 1007.12 1007.59 1007.65 1007.58 1008.02 1008.26 1008.78 1008.93 1009.32 1009.63
1003.42 1002.20 1000.29 998.43 1000.12 999.39 1000.16 997.74 997.80 998.72 998.54 998.01 997.83 997.36 997.21 997.53 997.81 998.22 998.52 999.03 999.46 999.85 1000.14 1000.27 1000.66 1000.85 1001.88 1002.39 1002.70 1002.81 1002.67 1002.81 1002.78 1003.08 1003.30 1004.09 1004.88 1005.61 1006.14 1006.55 1006.86 1007.09 1007.36 1007.74 1008.21 1008.54 1008.80 1009.01 1009.25
1002.80 1000.54 999.57 998.58 998.97 998.83 999.22 996.99 997.18 998.01 997.61 997.19 996.98 996.89 996.79 996.76 996.99 997.34 997.77 998.16 998.75 999.35 999.97 1000.40 1000.67 1000.77 1001.09 1001.62 1001.96 1002.09 1002.18 1002.28 1002.18 1002.29 1002.68 1003.28 1004.23 1005.01 1005.77 1006.08 1006.18 1006.68 1007.00 1007.33 1007.90 1008.21 1008.66 1008.69 1008.67
1001.19 1000.56 999.46 998.28 998.10 997.44 997.70 996.55 996.41 996.82 996.90 996.91 996.83 996.11 995.60 995.71 995.78 996.28 996.83 997.43 998.58 999.30 999.69 1000.08 1000.33 1000.32 1000.57 1000.95 1001.36 1001.51 1001.38 1001.50 1001.76 1001.82 1002.17 1002.73 1003.61 1004.51 1005.42 1005.49 1005.90 1006.27 1006.60 1006.87 1007.26 1007.85 1008.43 1008.37 1008.02
1002.25 1001.30 999.52 998.16 997.34 997.17 996.83 995.81 995.20 995.70 996.17 996.30 995.90 995.32 995.27 995.22 995.20 995.66 996.14 996.80 997.79 998.60 999.27 999.58 999.95 1000.14 1000.24 1000.20 1000.46 1000.48 1000.42 1000.50 1001.03 1001.51 1001.96 1002.44 1003.15 1004.15 1005.01 1005.18 1005.53 1005.91 1006.14 1006.47 1007.02 1007.80 1008.15 1007.81 1008.14
1003.04 1001.95 1000.44 999.88 999.06 998.36 997.04 996.22 995.07 995.05 994.90 995.23 995.58 995.23 994.71 994.64 994.80 995.20 995.64 996.46 997.21 997.80 998.39 998.90 999.39 999.66 999.51 999.51 999.99 999.74 999.40 999.58 1000.21 1001.04 1001.66 1002.27 1002.95 1003.70 1004.39 1004.80 1004.82 1005.52 1005.88 1006.26 1006.91 1007.53 1007.45 1007.72 1008.38
1003.14 1002.48 1001.67 1000.84 1000.20 999.36 998.20 996.69 995.86 994.91 994.72 994.70 994.81 994.96 994.82 994.59 994.65 995.07 995.46 995.95 996.43 996.81 997.44 998.05 998.51 998.62 998.55 999.02 999.24 999.53 999.90 999.91 999.92 1000.55 1001.47 1002.30 1002.82 1003.40 1004.08 1004.71 1004.46 1005.15 1005.63 1005.88 1006.70 1007.12 1007.21 1007.55 1007.74
1002.64 1002.76 1002.15 1001.56 1001.19 999.60 998.92 996.04 995.23 994.80 994.32 994.33 994.08 994.01 994.13 994.27 994.45 994.84 995.31 995.63 995.88 996.06 996.57 996.98 997.35 997.54 997.83 998.39 998.65 998.75 999.33 999.46 999.56 1000.30 1001.15 1002.37 1002.74 1003.34 1004.04 1004.55 1004.59 1005.07 1005.39 1005.41 1006.31 1006.50 1007.13 1007.41 1007.08
1002.69 1002.77 1002.40 1001.86 1001.07 1000.32 999.12 997.08 994.55 994.53 993.40 993.27 993.20 993.31 993.41 993.61 994.04 994.14 994.29 994.30 994.53 994.82 995.16 995.72 996.28 996.83 997.32 997.73 998.23 998.31 998.95 999.17 999.76 1000.25 1001.31 1002.38 1003.00 1003.51 1004.01 1004.45 1004.57 1004.89 1005.10 1005.05 1005.67 1006.27 1006.66 1006.85 1007.08
1003.17 1002.89 1002.57 1001.93 1001.15 999.43 998.62 997.30 994.80 994.09 993.47 992.59 992.07 991.89 991.94 992.27 992.54 992.87 993.25 993.42 993.33 993.62 993.96 994.57 995.38 996.11 996.84 997.33 997.79 998.15 998.44 998.52 999.27 1000.25 1001.81 1002.40 1003.01 1003.49 1003.71 1004.01 1004.20 1004.60 1004.77 1005.09 1005.61 1005.99 1006.43 1006.86 1006.89
1002.97 1002.99 1002.26 1001.36 1000.44 998.78 998.68 997.06 995.46 994.10 993.57 992.87 991.82 991.49 991.24 991.27 991.50 991.59 992.05 992.30 992.40 992.84 993.33 993.93 994.72 995.73 996.31 996.69 997.15 997.84 998.16 998.47 999.21 1000.78 1001.54 1001.91 1002.44 1002.81 1003.26 1003.48 1003.86 1004.24 1004.65 1005.04 1005.44 1005.95 1006.48 1006.84 1006.89
1003.07 1002.75 1002.41 1001.67 1000.61 999.34 998.26 996.49 995.26 994.49 992.72 991.86 991.90 991.66 991.56 991.10 991.27 991.60 991.51 991.59 991.61 992.08 992.85 993.55 994.09 994.93 995.59 996.32 996.93 997.56 998.00 998.52 999.10 999.94 1000.12 1001.03 1001.62 1002.25 1002.83 1003.24 1003.74 1004.15 1004.63 1004.96 1005.63 1006.04 1006.20 1006.40 1007.00
1003.46 1002.82 1003.62 1003.84 1002.76 1000.95 999.44 998.01 995.45 994.18 992.69 992.23 992.03 991.27 991.14 991.14 991.15 991.24 991.12 991.17 991.36 991.55 992.35 993.10 993.78 994.53 995.43 996.07 996.82 997.40 998.04 998.22 998.64 999.05 999.93 1000.76 1001.22 1001.97 1002.70 1003.18 1003.67 1004.02 1004.47 1005.09 1005.69 1005.60 1005.98 1006.25 1007.13
1003.33 1004.30 1004.56 1003.51 1002.49 1000.63 998.66 996.18 994.05 992.85 992.51 991.76 991.28 991.25 991.67 991.87 991.60 991.42 991.17 991.05 991.22 991.57 992.61 993.44 993.69 994.47 995.34 996.07 996.73 997.41 997.75 998.25 998.98 999.62 999.86 1000.58 1001.48 1001.84 1002.53 1003.11 1003.70 1004.18 1004.58 1004.89 1005.29 1005.40 1005.81 1006.58 1007.18
1003.85 1004.39 1003.39 1004.57 1004.07 1001.05 998.28 996.22 992.99 991.70 991.66 991.72 991.11 991.86 992.06 991.64 992.41 992.09 991.71 991.54 992.16 992.73 992.92 993.57 994.03 994.68 995.64 996.41 996.86 997.62 998.16 998.92 999.46 999.72 1000.25 1001.04 1001.58 1002.08 1002.61 1003.12 1003.65 1003.99 1004.38 1004.76 1005.14 1005.60 1005.85 1006.28 1006.99
1002.86 1003.64 1004.04 1003.68 1003.60 1002.14 999.80 996.21 994.87 993.46 988.35 991.52 991.96 992.71 992.24 991.70 992.83 993.32 993.35 993.23 992.55 992.40 992.98 993.63 994.19 995.14 995.84 996.82 997.46 998.19 998.64 999.11 999.60 1000.10 1000.73 1001.33 1001.69 1002.13 1002.47 1002.96 1003.50 1003.81 1004.08 1004.58 1005.25 1005.36 1005.32 1006.07 1006.84
Wind_Speed
12 13 10 7 9 9 17 19 12 12 13 4 4 7 8 15 8 2 12 14 19 20 20 21 19 18 18 17 15 15 13 13 14 15 15 15 14 14 12 12 11 11 10 9 8 7 7 6 5
14 11 7 9 10 14 14 19 13 10 11 9 10 10 8 16 12 12 15 9 19 19 18 21 21 19 19 18 16 15 15 14 14 14 15 15 14 13 13 12 12 12 11 10 9 8 7 6 5
14 11 10 10 15 17 15 20 11 14 9 9 7 10 7 8 3 7 20 15 18 18 18 18 22 20 18 19 17 15 14 14 14 14 14 14 13 12 12 11 11 11 12 11 10 9 8 7 5
8 8 8 13 19 22 26 4 5 8 8 9 10 9 4 5 2 10 18 16 17 16 17 18 21 18 18 17 16 15 14 14 14 14 13 13 12 11 11 11 11 11 11 10 10 9 9 7 6
9 10 14 17 21 25 17 6 2 10 8 8 13 12 12 10 1 20 20 18 17 17 15 19 23 18 17 17 17 16 16 15 14 14 13 13 12 12 12 12 12 12 11 11 10 9 8 7 5
10 8 14 17 22 20 20 11 11 17 15 13 11 16 12 14 11 17 19 18 18 17 15 18 20 19 18 18 18 17 16 15 15 15 14 14 14 13 13 12 12 12 11 11 11 10 8 7 6
17 15 19 23 20 18 16 17 17 17 18 17 16 15 9 13 15 19 19 18 17 17 15 17 16 18 17 17 18 18 18 16 15 14 15 15 14 14 13 13 12 12 12 11 10 9 9 9 8
15 16 26 22 19 22 15 14 15 18 18 15 9 18 20 17 20 20 19 16 14 15 15 15 15 18 17 16 16 16 17 17 16 15 15 16 15 14 14 13 13 13 12 11 10 10 10 10 9
19 18 19 25 23 20 12 13 18 16 17 15 11 13 14 21 17 18 17 16 12 13 11 11 14 16 16 17 16 14 15 15 16 16 16 14 12 15 17 16 15 15 13 12 12 11 11 11 11
22 19 28 24 21 16 16 15 19 21 12 19 12 3 5 13 17 18 16 13 14 13 13 12 10 13 15 13 15 16 15 13 13 14 15 14 13 12 15 16 15 17 15 14 13 14 14 13 10
25 29 26 24 24 18 14 18 19 22 16 20 15 12 9 17 18 18 17 16 18 17 13 16 13 10 12 12 9 9 8 9 10 15 14 13 11 11 11 9 11 11 15 10 13 12 10 12 10
29 32 28 30 29 22 15 16 23 24 22 21 20 20 14 8 10 11 8 9 7 7 9 9 14 12 11 9 10 10 10 10 9 13 16 12 9 10 9 9 12 11 10 12 12 9 11 13 14
32 29 29 29 24 25 24 20 25 24 25 22 22 9 11 12 12 11 10 10 10 9 7 6 8 11 10 11 10 10 9 10 11 12 15 13 13 11 11 10 10 11 12 12 11 11 10 12 9
26 28 32 29 28 27 27 28 22 29 23 26 26 25 19 20 19 17 15 14 13 12 11 9 11 12 13 11 11 7 8 10 10 11 11 18 13 11 12 11 11 10 11 11 11 11 10 9 9
25 28 28 28 26 33 27 27 27 29 28 26 28 25 22 22 22 21 16 15 14 13 12 9 8 6 11 12 10 10 10 11 11 11 11 15 16 13 12 11 11 11 10 10 8 8 8 7 8
22 21 26 34 27 29 24 36 36 29 28 29 29 26 23 27 25 22 19 15 14 14 12 10 9 11 12 10 8 9 10 10 11 11 11 14 15 15 12 11 11 11 10 9 9 10 9 9 9
21 26 28 31 29 28 29 36 32 30 31 29 29 28 25 26 27 22 19 18 14 11 10 10 10 12 8 9 9 10 10 10 11 10 11 13 14 16 13 11 10 11 10 10 10 9 8 8 9
20 26 28 30 28 25 31 35 32 29 28 27 28 29 26 28 28 22 21 13 13 12 11 10 10 11 9 7 6 9 9 10 10 11 10 12 12 15 13 11 11 11 10 10 10 10 10 10 7
22 27 32 30 23 25 30 30 34 30 28 27 26 24 29 28 25 23 21 13 13 11 12 11 13 13 9 9 9 10 10 10 10 10 11 11 12 13 12 12 12 10 11 11 9 9 10 8 7
22 25 28 27 29 24 22 26 32 26 28 27 26 28 27 22 21 20 18 15 14 14 13 12 15 14 10 10 8 9 8 10 10 9 9 11 14 15 14 13 11 12 11 10 10 11 10 8 6
20 22 24 27 24 26 26 29 33 29 29 24 25 27 28 27 26 23 22 18 16 15 13 15 15 14 12 13 9 6 7 7 8 9 9 11 14 13 10 12 9 11 10 10 10 11 11 6 8
22 19 22 21 22 22 27 24 26 25 27 27 28 26 23 22 22 21 22 22 20 18 16 15 14 13 13 12 12 11 9 9 9 8 9 10 10 9 10 9 8 9 11 10 11 10 8 8 6
22 21 22 23 23 25 29 24 22 24 25 26 26 27 28 25 22 23 24 23 21 18 15 15 14 13 11 12 12 11 11 10 8 9 10 8 7 9 10 11 10 10 10 9 10 9 9 8 6
22 18 24 21 20 22 27 27 24 23 26 22 18 20 17 19 22 22 23 23 18 16 16 13 14 13 12 13 14 12 13 11 10 10 9 7 7 9 13 14 10 11 8 9 9 8 7 7 7
18 18 14 17 18 19 22 25 22 23 28 27 26 24 23 14 16 17 17 17 16 17 16 13 12 12 14 14 13 14 12 10 12 14 11 12 10 9 10 11 11 9 8 9 7 6 6 8 7
16 18 14 21 16 17 22 25 20 25 28 13 18 16 17 13 10 14 15 13 13 13 13 14 14 13 13 13 14 13 13 10 11 14 12 11 10 10 13 9 11 11 10 9 6 6 7 7 7
16 18 16 21 25 19 18 28 29 29 23 18 18 12 10 9 10 10 12 12 11 13 13 13 11 13 13 14 13 13 13 12 12 11 12 9 9 11 11 12 11 9 9 7 7 7 7 4 5
15 15 4 15 23 24 17 23 17 31 28 17 17 6 3 9 7 11 7 9 9 6 7 11 12 13 14 15 13 12 10 12 14 10 9 12 12 12 12 11 9 8 8 9 7 7 7 6 5
9 12 16 10 12 14 19 10 13 25 31 21 7 5 6 4 5 6 4 5 6 11 12 12 14 15 12 11 11 12 12 13 12 10 12 12 11 11 11 11 10 8 7 7 7 4 5 8 8
2 11 10 9 8 20 17 19 21 26 27 27 13 6 9 9 5 3 3 5 14 13 14 15 16 17 15 11 12 12 12 14 13 13 13 12 11 10 9 8 8 9 10 8 8 8 7 9 10
Wind_Direction
224 239 238 233 238 230 248 234 234 215 193 229 344 246 274 262 188 119 137 130 129 139 154 165 170 171 167 170 168 168 167 162 159 159 159 160 164 168 170 166 162 164 162 162 158 157 150 145 134
208 218 232 266 241 240 231 244 194 232 205 156 201 215 250 246 83 111 128 145 137 135 154 172 173 173 172 171 172 171 170 168 168 167 170 171 173 174 175 171 170 170 169 169 168 165 159 158 153
263 226 259 228 235 246 254 200 181 217 99 202 206 216 214 184 144 120 125 146 140 147 161 175 171 175 176 171 174 175 176 172 175 175 177 175 175 174 177 177 177 177 176 175 172 171 168 165 160
212 212 254 258 250 230 261 11 188 137 208 231 224 183 219 21 27 119 135 146 143 157 167 152 170 176 177 175 175 176 180 178 183 183 182 178 179 178 179 180 183 183 183 180 179 181 174 177 176
253 260 237 238 240 264 250 241 268 273 252 222 189 215 200 175 226 125 148 155 160 163 169 152 163 177 179 179 177 179 183 185 185 187 184 186 184 181 183 187 186 189 190 188 189 190 188 193 194
221 235 252 247 244 236 257 272 244 226 242 244 236 224 201 156 181 154 161 168 165 164 170 148 163 172 181 183 182 182 185 189 189 188 188 188 190 185 189 192 194 196 192 193 195 197 197 206 216
242 243 244 255 256 254 253 258 247 241 241 229 209 226 211 159 177 171 170 171 165 163 168 152 174 176 182 186 187 186 185 191 192 192 192 193 193 188 192 196 196 200 198 198 201 202 207 213 225
238 252 263 260 259 260 253 246 263 263 256 254 284 215 214 173 168 175 175 173 171 163 170 169 168 182 191 190 193 191 189 188 190 193 195 194 194 193 195 193 200 205 204 203 206 209 214 219 226
228 248 247 250 254 265 266 271 247 265 248 250 231 260 328 141 171 184 183 181 182 168 168 185 169 176 193 196 187 194 198 196 193 196 198 192 205 197 200 203 195 200 203 204 209 213 218 222 226
229 239 241 248 255 254 259 251 264 243 225 255 216 52 264 150 184 185 188 191 193 184 174 185 184 190 188 208 187 193 200 205 207 209 204 212 211 210 207 199 206 190 200 208 212 213 215 218 232
230 240 249 251 252 265 257 252 259 263 232 225 210 186 201 189 191 194 194 203 204 201 206 186 164 194 202 201 201 183 197 200 203 211 209 206 211 215 204 207 189 200 201 207 207 211 222 225 243
236 241 248 256 273 282 257 269 272 270 252 258 215 181 180 192 190 221 223 237 233 197 194 243 169 185 207 219 198 209 206 196 201 202 207 212 206 211 214 210 194 198 198 213 206 212 210 226 239
243 246 248 254 255 260 266 240 257 256 263 248 264 195 194 214 229 241 268 287 291 282 260 220 191 182 198 213 226 207 216 206 205 209 197 202 207 213 206 211 221 188 211 194 227 216 199 220 222
255 250 253 254 253 251 247 251 254 252 251 260 247 259 235 239 231 235 222 243 250 258 263 242 212 178 191 207 213 227 216 233 211 216 208 196 209 206 207 209 214 216 205 216 202 213 223 217 228
265 267 266 257 248 247 251 253 240 251 255 245 251 239 243 249 250 251 247 236 243 247 246 242 238 212 194 205 211 215 233 213 240 221 212 190 201 215 206 205 216 219 218 219 203 229 214 229 225
278 260 250 243 242 247 242 249 244 248 253 249 247 253 238 235 234 241 240 236 239 248 259 245 245 212 193 206 214 224 232 233 227 230 213 203 193 213 206 218 209 214 222 206 220 213 219 216 231
245 251 246 254 242 240 234 248 247 250 253 252 240 243 244 244 240 240 248 251 247 249 228 242 243 243 216 203 227 236 237 235 243 226 223 197 199 198 226 211 216 208 215 212 209 215 222 214 234
254 243 246 253 258 241 231 241 244 244 249 245 257 263 241 237 243 244 239 230 232 227 227 239 246 233 238 246 238 245 245 233 234 234 219 197 191 200 197 214 222 204 215 210 209 206 210 234 232
276 273 277 278 274 245 251 244 244 245 239 250 255 242 236 250 252 245 248 227 238 234 231 236 235 244 245 236 231 235 233 228 222 225 214 201 186 185 191 217 200 216 210 218 185 193 232 211 226
278 276 271 274 272 278 277 269 267 251 246 240 245 253 258 255 255 253 258 252 249 244 237 232 239 237 231 223 237 253 235 227 209 207 198 194 190 188 193 214 199 197 207 196 189 210 213 208 195
265 263 272 279 285 273 262 254 262 255 253 249 245 250 254 253 252 250 253 259 258 251 234 226 229 233 232 220 217 213 257 257 191 192 182 193 191 194 191 203 216 175 219 187 200 197 216 197 198
267 271 277 274 264 260 253 263 253 248 250 250 246 242 246 253 258 257 255 253 249 243 243 238 227 222 220 208 228 196 213 211 202 181 180 195 191 173 183 190 213 171 207 181 191 202 186 226 218
269 277 277 268 268 257 254 257 257 250 243 239 239 244 243 241 237 244 248 254 253 246 234 227 219 207 218 190 223 195 218 203 189 194 143 162 153 165 175 188 200 181 207 162 179 178 199 182 242
272 273 267 260 260 252 248 253 250 246 251 266 260 254 250 245 243 243 244 245 246 246 241 221 208 203 205 214 197 226 192 226 170 161 160 162 160 171 185 192 181 181 191 173 173 188 186 229 249
247 252 261 249 243 252 249 257 258 258 247 256 249 250 243 250 255 239 243 244 237 239 228 224 208 213 212 201 195 201 199 197 154 150 170 164 170 176 172 175 176 170 184 167 198 177 198 213 234
255 244 252 269 265 267 238 242 254 253 260 249 295 276 264 250 255 248 240 241 245 210 209 210 202 202 188 186 184 183 177 177 159 183 160 162 172 165 165 168 168 172 174 184 155 195 220 192 209
278 254 249 264 276 291 264 268 272 240 247 241 243 227 221 239 257 264 259 251 235 219 195 196 183 190 175 174 171 167 171 169 165 148 145 159 141 144 164 164 174 172 179 166 196 236 184 180 166
251 333 259 231 253 257 256 260 270 211 237 218 219 156 289 272 267 260 252 237 204 160 139 196 178 158 162 159 155 159 154 138 129 138 150 140 135 152 158 160 168 174 186 197 191 205 169 164 178
218 214 247 179 256 275 258 297 255 210 207 222 215 76 305 309 336 324 317 94 116 183 149 147 150 146 136 148 135 120 126 131 147 133 135 131 143 145 161 167 178 185 189 192 196 236 209 206 181
235 297 271 246 274 274 268 272 302 284 165 187 83 36 350 53 82 169 210 191 203 149 147 143 141 144 144 129 129 128 138 138 135 139 138 143 149 164 165 163 175 181 189 166 212 215 216 184 172